Flag for India Weather past 2 weeks in Jaipur, Rajasthan, India

Now
84 °F

Haze.


Feels Like: 87 °F
Forecast: 80 / 96 °F
Wind: 3 mph from Northwest

Location: Jaipur / Sanganer

Current Time: Sep 5, 2015 at 1:21:30 AM

Latest Report: Sep 4, 2015 at 11:00 PM


Visibility: 2 mi

Pressure: 29.86 "Hg

Humidity: 55%

Dew point: 66 °F

Location of JaipurLocation

Historic Weather in Jaipur — Graph

°F

Jaipur temperature yesterday

Maximum temperature yesterday: 95 °F (at 1:00 PM)
Minimum temperature yesterday: 82 °F (at 5:00 AM)
Average temperature yesterday: 88 °F

Past Weeks' High & Low Weather Summary

 TemperatureHumidityPressure
High99 °F (Aug 28, 3:00 PM)94% (Aug 21, 5:00 AM)29.92 "Hg (Aug 21, 5:00 AM)
Low77 °F (Aug 21, 5:00 AM)19% (Sep 3, 2:30 AM)29.62 "Hg (Aug 22, 4:00 PM)
Average87 °F61%29.71 "Hg
* Reported Aug 20 11:00 PM — Sep 4 11:00 PM, Jaipur, Weather by CustomWeather, © 2015

Note: Actual official high and low records may vary slightly from our data, if they occured in-between our weather recording intervals... More about our weather records

Advertising

Jaipur weather history for previous 24 hours

 ConditionsComfort  
Time TempWeatherWind HumidityBarometerVisibility
11:00 PM
Fri, Sep 4
84 °FHaze.3 mph55%29.86 "Hg2 mi
10:00 PM86 °FHaze.2 mph52%29.89 "Hg2 mi
9:00 PM88 °FHaze.2 mph46%29.86 "Hg2 mi
7:00 PM91 °FHaze.2 mph38%29.83 "Hg2 mi
6:00 PM93 °FHaze.6 mph36%29.83 "Hg3 mi
5:00 PM93 °FHaze.5 mph36%29.83 "Hg3 mi
4:00 PM93 °FHaze.3 mph39%29.83 "Hg3 mi
3:00 PM95 °FHaze.6 mph36%29.86 "Hg2 mi
2:00 PM95 °FHaze.5 mph36%29.89 "Hg2 mi
1:00 PM95 °FHaze.7 mph36%29.89 "Hg2 mi
10:00 AM88 °FHaze.7 mph46%29.92 "Hg2 mi
9:00 AM88 °FHaze.9 mph49%29.89 "Hg2 mi
8:00 AM84 °FHaze.6 mph62%29.89 "Hg2 mi
6:00 AM82 °FHaze.6 mph70%29.86 "Hg2 mi
5:00 AM82 °FHaze.3 mph70%29.83 "Hg2 mi
4:00 AM84 °FHaze.2 mph62%29.83 "Hg2 mi
3:00 AM84 °FHaze.3 mph62%29.83 "Hg2 mi
2:00 AM84 °FHaze.3 mph62%29.80 "Hg2 mi
1:00 AM84 °FHaze.2 mph62%29.83 "Hg2 mi
Weather by CustomWeather, © 2015

See weather overviewHow to use our weather pages